Weather in Mayguba

Russia / Republic of Karelia     63°48′11″N   34°17′58″E
temp.,
°C
wind,
m/s
gust,
m/s
humid.,
%
clouds,
%
prec.,
mm/h
press.,
hPa
HPBL,
m
5 august, thu
thu500:00+10w51179100 0.0 1012914
03:00+10wsw41080100 0.1 1013357
06:00+10w378299 0.0 1015225
09:00+13w3565100 0.0 1016464
12:00+17wnw235296 0.0 10171222
15:00+17se125398 0.0 10171077
18:00+15s2368100 0.1 101888
21:00+14ssw2267100 0.1 101817
6 august, fri
fri600:00+13s0169100 0.0 101911
03:00+13ese1168100 0.0 102011
06:00+13se2272100 0.0 102019
09:00+14ese2271100 0.0 1021123
12:00+16e115768 0.0 1021338
15:00+19ene234113 0.0 10201646
18:00+18ene34495 0.0 1020875
21:00+14ene37666 0.0 1021107
7 august, sat
sat700:00+12e35765 0.0 102182
03:00+11ene23811 0.0 102255
06:00+12e35770 0.0 1022154
09:00+16ese48570 0.0 1022462
12:00+18ese47450 0.0 10211389
15:00+20ese47414 0.0 10201610
18:00+19e484922 0.0 10191204
21:00+15ene6126542 0.0 1019351
8 august, sun
sun800:00+14e5137277 0.0 1019296
03:00+13e51371100 0.0 1019333
06:00+13e6137198 0.0 1018412
09:00+16e61359100 0.0 1018633
12:00+18e71051100 0.0 10181000
15:00+18e51051100 0.0 10181224
18:00+18ese4857100 0.0 1017822
21:00+14ese4972100 0.0 1018380
9 august, mon
mon900:00+13e3774100 0.0 1018387
03:00+13ne41071100 0.0 1017506
06:00+14e5136899 0.0 1018662
09:00+16e5106099 0.0 1018638
12:00+18ese485265 0.0 10181041
15:00+20se364899 0.0 10181230
18:00+19sse22545 0.0 1018494
21:00+14ese11775 0.0 101811